DW5918 Weather Reports


Display with metric or nautical units.
time (UTC)temp
F
wind
direction
speed
MPH
gust
MPH
rain 1hr
in
rain 24hr
in
rain mn
in
humidity
%
barometer
mb
20260903060057 60 250 0.0 1.0 0.03 0.04 0.04 1 1016.2
20260903054548 60 250 0.0 1.0 0.03 0.03 0.03 1 1016.8
20260903053045 60 250 0.0 0.0 0.02 0.02 0.02 1 1017.0
20260903051544 60 250 0.0 1.0 0.01 0.01 0.01 1 1017.7
20260903050043 60 250 0.0 3.0 0.01 0.01 0.01 1 1018.0
20260903044531 60 250 0.0 0.0 0.00 0.00 0.00 13 1018.0
20260903043128 61 250 0.0 0.0 0.00 0.00 0.00 25 1018.1
20260903041527 61 250 0.0 1.0 0.00 0.00 0.00 30 1018.1
20260903040024 61 254 0.0 0.0 0.00 0.00 0.00 33 1018.1
20260903034527 61 254 0.0 0.0 0.00 0.00 0.00 34 1018.3
20260903033015 61 254 0.0 2.0 0.00 0.00 0.00 34 1018.1
20260903031511 61 213 0.0 0.0 0.00 0.00 0.00 35 1017.7
20260903030009 61 213 0.0 1.0 0.00 0.00 0.00 34 1018.0
20260903024503 61 212 0.0 0.0 0.00 0.00 0.00 36 1018.3
20260903023058 61 212 0.0 0.0 0.00 0.00 0.00 36 1018.9
20260903021555 61 212 0.0 0.0 0.00 0.00 0.00 38 1019.0
20260903020052 62 212 0.0 0.0 0.00 0.00 0.00 40 1019.4
20260903014551 62 212 0.0 0.0 0.00 0.00 0.00 45 1019.8
20260903013042 62 211 0.0 1.0 0.00 0.00 0.00 48 1019.7
20260903011555 62 125 0.0 0.0 0.00 0.00 0.00 53 1019.5
20260903010034 62 63 0.0 0.0 0.00 0.00 0.00 50 1019.2
20260903004529 62 63 0.0 0.0 0.00 0.00 0.00 49 1018.6
20260903003024 62 63 0.0 0.0 0.00 0.00 0.00 50 1018.7
20260903001520 63 63 0.0 1.0 0.00 0.00 0.00 51 1019.0
20260903000019 63 63 0.0 0.0 0.00 0.00 0.00 52 1019.1
20260902234516 63 63 0.0 0.0 0.00 0.00 0.00 55 1019.1
20260902233008 63 63 0.0 0.0 0.00 0.00 0.00 58 1019.3
20260902231511 64 63 0.0 2.0 0.00 0.00 0.00 61 1019.4
20260902230100 64 63 0.0 0.0 0.00 0.00 0.00 61 1019.8
20260902224601 65 63 0.0 0.0 0.00 0.00 0.00 60 1020.3
20260902223051 65 63 0.0 0.0 0.00 0.00 0.00 56 1020.5
20260902221649 65 63 0.0 0.0 0.00 0.00 0.00 53 1020.6
20260902220043 65 63 0.0 0.0 0.00 0.00 0.00 45 1020.4
20260902214538 65 63 0.0 0.0 0.00 0.00 0.00 41 1020.2
20260902213034 65 63 0.0 1.0 0.00 0.00 0.00 40 1019.9
20260902211539 65 63 0.0 0.0 0.00 0.00 0.00 42 1020.3
20260902210026 65 63 0.0 2.0 0.00 0.00 0.00 39 1020.4
20260902204522 65 63 0.0 2.0 0.00 0.00 0.00 37 1020.1
20260902203017 65 63 0.0 0.0 0.00 0.00 0.00 36 1020.0
20260902201513 65 63 0.0 0.0 0.00 0.00 0.00 35 1020.1
20260902200009 65 63 0.0 3.0 0.00 0.00 0.00 27 1020.4
20260902194508 64 63 0.0 1.0 0.00 0.01 0.00 30 1020.3
20260902193101 64 63 0.0 1.0 0.00 0.01 0.00 40 1020.7
20260902191557 64 63 0.0 1.0 0.00 0.01 0.00 43 1020.8
20260902190052 65 63 0.0 0.0 0.00 0.01 0.00 50 1020.9
20260902184557 65 63 0.0 1.0 0.00 0.02 0.00 53 1020.9
20260902183043 65 63 0.0 0.0 0.00 0.02 0.00 61 1021.0
20260902181543 65 63 0.0 3.0 0.00 0.02 0.00 57 1020.7
20260902180040 66 59 0.0 3.0 0.00 0.02 0.00 63 1020.6
20260902174531 66 59 0.0 2.0 0.00 0.10 0.00 61 1020.8
20260902173027 65 59 0.0 0.0 0.00 0.10 0.00 62 1021.0
20260902171522 64 59 0.0 1.0 0.00 0.10 0.00 51 1021.3
20260902170020 64 59 0.0 4.0 0.00 0.10 0.00 43 1021.3
20260902164514 63 61 0.0 5.0 0.00 0.34 0.00 48 1021.2
20260902163010 63 53 2.0 4.0 0.00 0.34 0.00 53 1021.3
20260902161508 63 360 1.0 5.0 0.00 0.34 0.00 54 1021.4
20260902154557 62 69 2.0 5.0 0.00 0.34 0.00 55 1021.5
20260902153053 62 69 0.0 4.0 0.00 0.34 0.00 48 1021.6
20260902151549 62 53 1.0 3.0 0.00 0.34 0.00 46 1021.8
20260902150044 61 156 0.0 3.0 0.00 0.34 0.00 32 1022.2
20260902144541 61 63 0.0 4.0 0.00 0.35 0.00 6 1022.2
20260902143039 61 61 1.0 4.0 0.00 0.35 0.00 1 1021.9
20260902141535 60 61 2.0 4.0 0.00 0.35 0.00 1 1021.9
20260902140027 60 61 2.0 5.0 0.00 0.35 0.00 1 1021.9
20260902134534 60 56 0.0 7.0 0.00 0.40 0.00 1 1021.9
20260902133022 60 72 2.0 6.0 0.00 0.40 0.00 1 1021.6
20260902131515 59 59 2.0 6.0 0.00 0.40 0.00 1 1021.5
20260902130009 59 60 2.0 5.0 0.00 0.40 0.00 1 1021.6
20260902124506 58 71 2.0 6.0 0.00 0.55 0.00 1 1021.4
20260902123002 58 64 4.0 6.0 0.00 0.55 0.00 1 1021.4
20260902121608 58 66 2.0 8.0 0.00 0.55 0.00 1 1021.3
20260902120052 58 67 1.0 8.0 0.00 0.55 0.00 1 1021.3
20260902114549 58 80 2.0 7.0 0.00 0.77 0.00 1 1021.3
20260902113051 58 63 3.0 9.0 0.00 0.77 0.00 1 1021.5
20260902111546 58 71 2.0 8.0 0.00 0.77 0.00 1 1021.6
20260902110044 58 73 2.0 8.0 0.00 0.77 0.00 1 1021.6
20260902104536 57 63 1.0 5.0 0.00 0.99 0.00 1 1021.4
20260902103031 57 70 3.0 8.0 0.00 0.99 0.00 1 1021.1
20260902101527 57 63 1.0 4.0 0.00 0.99 0.00 1 1021.0
20260902100022 57 63 1.0 5.0 0.00 0.99 0.00 1 1020.9
20260902093012 58 66 4.0 7.0 0.00 1.01 0.00 1 1020.4
20260902091510 58 61 2.0 5.0 0.00 1.01 0.00 1 1020.1
20260902090001 58 65 1.0 4.0 0.00 1.01 0.00 1 1020.1
20260902084605 58 66 1.0 4.0 0.00 1.02 0.00 1 1020.1
20260902083058 58 67 2.0 5.0 0.00 1.02 0.00 1 1020.2
20260902081600 58 55 0.0 5.0 0.00 1.02 0.00 1 1020.0
20260902080045 58 64 1.0 5.0 0.00 1.02 0.00 1 1019.7
20260902074540 58 62 0.0 5.0 0.00 1.03 0.00 1 1019.8
20260902073048 58 69 0.0 3.0 0.00 1.03 0.00 1 1020.1
20260902071535 58 67 0.0 4.0 0.00 1.03 0.00 1 1020.1
20260902070027 58 67 2.0 5.0 0.00 1.03 0.00 1 1020.1
20260902064526 58 63 0.0 6.0 0.00 1.04 0.00 1 1020.2
20260902063020 58 69 2.0 6.0 0.00 1.04 0.00 1 1020.1
20260902061515 58 68 2.0 6.0 0.00 1.04 0.00 1 1019.9